Orbital Elements at Epoch 2459000.5 (2020-May-31.0) TDB
Reference: JPL 11 (heliocentric ecliptic J2000)
Element | Value | Uncertainty (1-sigma) | Units |
e | .112099089307566 | 7.2316e-08 | |
a | 2.741070490290765 | 2.6148e-08 | au |
q | 2.433798984601327 | 2.0362e-07 | au |
i | 6.032856743662147 | 6.7741e-06 | deg |
node | 56.87938148314763 | 7.1437e-05 | deg |
peri | 345.4055045231663 | 7.8169e-05 | deg |
M | 313.9501248281467 | 3.4278e-05 | deg |
tp | 2459212.533601246963 (2020-Dec-29.03360125) | 0.00015886 | TDB |
period | 1657.596164246777 4.54 | 2.3718e-05 6.494e-08 | d yr |
n | .2171819697493005 | 3.1076e-09 | deg/d |
Q | 3.048341995980203 | 2.9079e-08 | au |
|
| | Orbit Determination Parameters
Additional Information
|